• In Germany
  • List of Countries
  • For 7 days
  • Water Temperature
  • Satellite Maps
  • Weather Map
  • Weather Widgets
  • user-avatar
    Login

    Hourly Weather Bihać

    Today, 25 November, Saturday

    Time Temperature Precipitation Wind Pressure Humidity
    00:00 +7°C° 0 mm 2 mps 712 mmHg 94%
    01:00 +7°C° 0 mm 2 mps 712 mmHg 94%
    02:00 +7°C° 0 mm 2 mps 712 mmHg 94%
    03:00 +7°C° 0 mm 2 mps 711 mmHg 94%
    04:00 +7°C° 0 mm 3 mps 711 mmHg 93%
    05:00 +7°C° 0 mm 3 mps 711 mmHg 93%
    06:00 +7°C° 0 mm 3 mps 710 mmHg 93%
    07:00 +6°C° 0 mm 4 mps 710 mmHg 93%
    08:00 +7°C° 0 mm 4 mps 710 mmHg 90%
    09:00 +8°C° 0 mm 5 mps 710 mmHg 87%
    10:00 +9°C° 0 mm 5 mps 710 mmHg 84%
    11:00 +9°C° 0 mm 6 mps 709 mmHg 82%
    12:00 +9°C° 0 mm 6 mps 709 mmHg 81%
    13:00 +9°C° 0 mm 6 mps 709 mmHg 80%
    14:00 +9°C° 0 mm 6 mps 708 mmHg 82%
    15:00 +9°C° 0 mm 6 mps 708 mmHg 83%
    16:00 +8°C° 0 mm 6 mps 707 mmHg 85%
    17:00 +8°C° 0.1 mm 6 mps 707 mmHg 86%
    18:00 +8°C° 0.1 mm 6 mps 707 mmHg 87%
    19:00 +8°C° 0.1 mm 6 mps 707 mmHg 88%
    20:00 +8°C° 0.3 mm 6 mps 706 mmHg 88%
    21:00 +9°C° 0.3 mm 6 mps 706 mmHg 89%
    22:00 +9°C° 0.3 mm 7 mps 706 mmHg 89%
    23:00 +9°C° 0.4 mm 6 mps 706 mmHg 90%

    Tomorrow, 26 November, Sunday

    Time Temperature Precipitation Wind Pressure Humidity
    00:00 +9°C° 0.4 mm 6 mps 706 mmHg 90%
    01:00 +9°C° 0.4 mm 6 mps 706 mmHg 90%
    02:00 +9°C° 1.3 mm 5 mps 705 mmHg 92%
    03:00 +8°C° 1.3 mm 5 mps 705 mmHg 93%
    04:00 +8°C° 1.3 mm 5 mps 705 mmHg 95%
    05:00 +7°C° 4.1 mm 5 mps 705 mmHg 93%
    06:00 +5°C° 4.1 mm 5 mps 705 mmHg 92%
    07:00 +3°C° 4.1 mm 5 mps 706 mmHg 91%
    08:00 +3°C° 0.5 mm 6 mps 706 mmHg 88%
    09:00 +2°C° 0.5 mm 6 mps 706 mmHg 85%
    10:00 +2°C° 0.5 mm 7 mps 707 mmHg 83%
    11:00 +2°C° 0.2 mm 7 mps 707 mmHg 82%
    12:00 +2°C° 0.2 mm 7 mps 707 mmHg 81%
    13:00 +2°C° 0.2 mm 7 mps 707 mmHg 80%
    14:00 +2°C° 0.1 mm 7 mps 707 mmHg 80%
    15:00 +1°C° 0.1 mm 8 mps 707 mmHg 81%
    16:00 0°C° 0.1 mm 8 mps 707 mmHg 82%
    17:00 0°C° 0.1 mm 8 mps 708 mmHg 81%
    18:00 0°C° 0.1 mm 9 mps 708 mmHg 81%
    19:00 -1°C° 0.1 mm 9 mps 709 mmHg 80%
    20:00 -2°C° 0.1 mm 10 mps 709 mmHg 79%
    21:00 -2°C° 0.1 mm 10 mps 710 mmHg 78%
    22:00 -3°C° 0.1 mm 10 mps 710 mmHg 77%
    23:00 -3°C° 0.1 mm 10 mps 710 mmHg 76%

    Day after tomorrow, 27 November, Monday

    Time Temperature Precipitation Wind Pressure Humidity
    00:00 -3°C° 0.1 mm 10 mps 711 mmHg 75%
    01:00 -4°C° 0.1 mm 9 mps 711 mmHg 75%
    02:00 -4°C° 0.1 mm 9 mps 711 mmHg 74%
    03:00 -4°C° 0.1 mm 9 mps 711 mmHg 74%
    04:00 -4°C° 0.1 mm 9 mps 712 mmHg 74%
    05:00 -4°C° 0 mm 9 mps 712 mmHg 74%
    06:00 -5°C° 0 mm 9 mps 712 mmHg 74%
    07:00 -5°C° 0 mm 9 mps 713 mmHg 74%
    08:00 -4°C° 0 mm 9 mps 713 mmHg 72%
    09:00 -4°C° 0 mm 9 mps 713 mmHg 70%
    10:00 -2°C° 0 mm 8 mps 714 mmHg 69%
    11:00 -2°C° 0 mm 8 mps 714 mmHg 68%
    12:00 -1°C° 0 mm 7 mps 713 mmHg 67%
    13:00 -1°C° 0 mm 6 mps 713 mmHg 67%
    14:00 -2°C° 0 mm 6 mps 713 mmHg 69%
    15:00 -1°C° 0 mm 5 mps 713 mmHg 71%
    16:00 -1°C° 0 mm 5 mps 713 mmHg 73%
    17:00 -2°C° 0 mm 5 mps 713 mmHg 75%
    18:00 -2°C° 0 mm 4 mps 713 mmHg 77%
    19:00 -3°C° 0 mm 4 mps 713 mmHg 78%
    20:00 -3°C° 0 mm 4 mps 713 mmHg 79%
    21:00 -3°C° 0 mm 4 mps 713 mmHg 79%
    22:00 -3°C° 0 mm 4 mps 713 mmHg 79%
    23:00 -4°C° 0 mm 4 mps 713 mmHg 80%

    28 November, Tuesday

    Time Temperature Precipitation Wind Pressure Humidity
    00:00 -4°C° 0 mm 3 mps 712 mmHg 80%
    01:00 -4°C° 0 mm 3 mps 712 mmHg 81%
    02:00 -4°C° 0 mm 3 mps 712 mmHg 81%
    03:00 -5°C° 0 mm 3 mps 712 mmHg 82%
    04:00 -5°C° 0 mm 3 mps 711 mmHg 82%
    05:00 -5°C° 0 mm 3 mps 711 mmHg 82%
    06:00 -5°C° 0 mm 3 mps 711 mmHg 83%
    07:00 -5°C° 0 mm 3 mps 711 mmHg 83%
    08:00 -3°C° 0 mm 2 mps 711 mmHg 76%
    09:00 -1°C° 0 mm 2 mps 711 mmHg 70%
    10:00 +1°C° 0 mm 2 mps 711 mmHg 63%
    11:00 +2°C° 0 mm 2 mps 711 mmHg 59%
    12:00 +3°C° 0 mm 2 mps 710 mmHg 55%
    13:00 +4°C° 0 mm 2 mps 710 mmHg 50%
    14:00 +4°C° 0 mm 1 mps 709 mmHg 56%
    15:00 +3°C° 0 mm 1 mps 709 mmHg 61%
    16:00 +2°C° 0 mm 1 mps 708 mmHg 66%
    17:00 +1°C° 0 mm 1 mps 708 mmHg 68%
    18:00 +1°C° 0 mm 1 mps 708 mmHg 69%
    19:00 0°C° 0 mm 1 mps 708 mmHg 70%
    20:00 0°C° 0 mm 1 mps 707 mmHg 70%
    21:00 0°C° 0 mm 1 mps 707 mmHg 69%
    22:00 0°C° 0 mm 1 mps 707 mmHg 68%
    23:00 -2°C° 0 mm 2 mps 707 mmHg 69%

    29 November, Wednesday

    Time Temperature Precipitation Wind Pressure Humidity
    00:00 -2°C° 0 mm 2 mps 707 mmHg 70%
    01:00 -2°C° 0 mm 2 mps 706 mmHg 70%
    02:00 -2°C° 0 mm 2 mps 706 mmHg 71%
    03:00 -2°C° 0 mm 3 mps 706 mmHg 72%
    04:00 -1°C° 0 mm 3 mps 706 mmHg 73%
    05:00 -2°C° 0 mm 4 mps 706 mmHg 74%
    06:00 -2°C° 0 mm 4 mps 706 mmHg 75%
    07:00 -1°C° 0 mm 5 mps 706 mmHg 75%
    08:00 0°C° 0 mm 5 mps 706 mmHg 75%
    09:00 +1°C° 0 mm 6 mps 706 mmHg 75%
    10:00 +2°C° 0 mm 6 mps 706 mmHg 74%
    11:00 +3°C° 0 mm 7 mps 705 mmHg 74%
    12:00 +3°C° 0 mm 7 mps 705 mmHg 74%
    13:00 +4°C° 0 mm 8 mps 705 mmHg 74%
    14:00 +4°C° 0 mm 8 mps 704 mmHg 76%
    15:00 +2°C° 0 mm 8 mps 704 mmHg 78%
    16:00 +3°C° 0 mm 7 mps 704 mmHg 80%
    17:00 +2°C° 0.1 mm 8 mps 704 mmHg 82%
    18:00 +2°C° 0.1 mm 8 mps 703 mmHg 84%
    19:00 +2°C° 0.1 mm 8 mps 703 mmHg 85%
    20:00 +2°C° 0.4 mm 8 mps 702 mmHg 87%
    21:00 +4°C° 0.4 mm 8 mps 702 mmHg 88%
    22:00 +3°C° 0.4 mm 9 mps 701 mmHg 89%
    23:00 +3°C° 2.6 mm 9 mps 700 mmHg 89%

    30 November, Thursday

    Time Temperature Precipitation Wind Pressure Humidity
    00:00 +3°C° 2.6 mm 10 mps 699 mmHg 89%
    01:00 +4°C° 2.6 mm 11 mps 698 mmHg 89%
    02:00 +4°C° 3.2 mm 11 mps 697 mmHg 89%
    03:00 +4°C° 3.2 mm 11 mps 697 mmHg 89%
    04:00 +5°C° 3.2 mm 12 mps 696 mmHg 88%
    05:00 +6°C° 3.6 mm 11 mps 696 mmHg 89%
    06:00 +7°C° 3.6 mm 9 mps 696 mmHg 90%
    07:00 +7°C° 3.6 mm 8 mps 696 mmHg 91%
    08:00 +8°C° 1.9 mm 7 mps 696 mmHg 92%
    09:00 +8°C° 1.9 mm 6 mps 697 mmHg 93%
    10:00 +8°C° 1.9 mm 5 mps 697 mmHg 95%
    11:00 +8°C° 0.7 mm 4 mps 697 mmHg 95%
    12:00 +8°C° 0.7 mm 3 mps 698 mmHg 95%
    13:00 +8°C° 0.7 mm 3 mps 698 mmHg 95%
    14:00 +7°C° 0.7 mm 2 mps 698 mmHg 95%
    15:00 +6°C° 0.7 mm 2 mps 698 mmHg 94%
    16:00 +6°C° 0.7 mm 2 mps 699 mmHg 94%
    17:00 +4°C° 2 mm 3 mps 699 mmHg 93%
    18:00 +3°C° 2 mm 3 mps 699 mmHg 92%
    19:00 +2°C° 2 mm 3 mps 699 mmHg 92%
    20:00 +1°C° 1.2 mm 4 mps 699 mmHg 91%
    21:00 +1°C° 1.2 mm 4 mps 700 mmHg 90%
    22:00 0°C° 1.2 mm 4 mps 700 mmHg 90%
    23:00 0°C° 0.3 mm 4 mps 700 mmHg 90%
    Show more